Weather History for Christmas Island, IS

Change the Weather History Date:

Saturday, November 9, 2013

  Actual Average Record
Temperature  
Mean Temperature 76 °F -  
Max Temperature 81 °F 77 °F 82 °F (1998)
Min Temperature 72 °F 71 °F 71 °F (1996)
Cooling Degree Days 12    
Growing Degree Days 26 (Base 50)    
Moisture  
Dew Point 74 °F    
Average Humidity 93    
Maximum Humidity 100    
Minimum Humidity 78    
Precipitation  
Precipitation 0.01 in - - ()
Sea Level Pressure  
Sea Level Pressure 29.86 in    
Wind  
Wind Speed 10 mph ()    
Max Wind Speed 15 mph    
Max Gust Speed -    
Visibility 6.2 miles    
Events      
Averages and records for this station are not official NWS values.
T = Trace of Precipitation, MM = Missing Value Source: Averaged Metar Reports

Daily Weather History Graph

Daily Weather History Graph

Search for Another Location

Airport:

Trip Planner

Search our weather history database for the weather conditions in past years. The results will help you decide how hot, cold, wet, or windy it might be!

Date:

Astronomy

Nov. 09, 2013 Rise Set
Actual Time 5:24 AM CXT 5:57 PM CXT
Civil Twilight 5:02 AM CXT 6:19 PM CXT
Nautical Twilight 4:36 AM CXT 6:45 PM CXT
Astronomical Twilight 4:10 AM CXT 7:11 PM CXT
Moon 10:47 AM CXT (11/9) 11:34 PM CXT (11/9)
Length of Visible Light 13h 17m
Length of Day
12h 32m
Waxing Crescent, 38% of the Moon is Illuminated
Nov 9
Waxing Crescent
Nov 10
First Quarter
Nov 17
Full
Nov 26
Last Quarter
Dec 3
New

Hourly Weather History & Observations

Time (CXT) Temp. Heat Index Dew Point Humidity Pressure Visibility Wind Dir Wind Speed Gust Speed Precip Events Conditions
12:00 AM 76 °F - 74 °F 92% 29.82 in - East 10.4 mph - -   Overcast
12:00 AM 75.2 °F - 73.4 °F 94% 29.86 in - East 10.4 mph - N/A   Overcast
1:00 AM 76 °F - 74 °F 94% 29.81 in - East 10.4 mph - -  
1:00 AM 75.2 °F - 75.2 °F 100% 29.83 in - East 10.4 mph - N/A   Overcast
2:00 AM 73.4 °F - 73.4 °F 100% 29.83 in - East 13.8 mph - N/A   Overcast
3:00 AM 72 °F - 71 °F 96% 29.80 in - SSE 5.8 mph - -   Overcast
3:00 AM 71.6 °F - 71.6 °F 100% 29.83 in - SSE 5.8 mph - N/A   Overcast
3:24 AM 73.4 °F - 71.6 °F 94% 29.83 in - East 6.9 mph - N/A   Overcast
4:00 AM 74 °F - 73 °F 96% 29.81 in - SE 5.8 mph - -  
4:00 AM 73.4 °F - 73.4 °F 100% 29.83 in - SE 5.8 mph - N/A   Overcast
5:00 AM 75.2 °F - 75.2 °F 100% 29.86 in - East 11.5 mph - N/A   Overcast
6:00 AM 75 °F - 75 °F 99% 29.84 in - ESE 9.2 mph - -   Overcast
6:00 AM 75.2 °F - 75.2 °F 100% 29.86 in - ESE 9.2 mph - N/A   Overcast
7:00 AM 75 °F - 74 °F 97% 29.86 in - ESE 9.2 mph - -  
7:00 AM 75.2 °F - 75.2 °F 100% 29.89 in - ESE 9.2 mph - N/A   Overcast
7:23 AM 75.2 °F - 75.2 °F 100% 29.89 in - ESE 6.9 mph - N/A   Overcast
7:26 AM 75.2 °F - 75.2 °F 100% 29.89 in - ESE 6.9 mph - N/A   Overcast
8:00 AM 75.2 °F - 75.2 °F 100% 29.89 in - East 10.4 mph - N/A   Overcast
9:00 AM 75 °F - 74 °F 94% 29.88 in - East 15.0 mph - -   Overcast
9:00 AM 75.2 °F - 73.4 °F 94% 29.92 in - East 15.0 mph - N/A   Overcast
10:00 AM 76 °F - 73 °F 87% 29.87 in - East 12.7 mph - -  
10:00 AM 75.2 °F - 73.4 °F 94% 29.92 in 6.2 mi East 12.7 mph - N/A   Overcast
10:22 AM 77.0 °F - 73.4 °F 89% 29.89 in 6.2 mi East 11.5 mph - N/A   Scattered Clouds
10:26 AM 77.0 °F - 73.4 °F 89% 29.89 in 6.2 mi East 12.7 mph - N/A   Mostly Cloudy
10:52 AM 78.8 °F - 73.4 °F 83% 29.89 in 6.2 mi East 13.8 mph - N/A   Mostly Cloudy
11:00 AM 78.8 °F - 71.6 °F 78% 29.89 in 6.2 mi East 12.7 mph - N/A   Mostly Cloudy
11:28 AM 80.6 °F 85.4 °F 73.4 °F 79% 29.89 in 6.2 mi East 13.8 mph - N/A   Mostly Cloudy
12:00 PM 80 °F - 75 °F 80% 29.84 in - East 12.7 mph - -  
12:00 PM 80.6 °F 86.2 °F 75.2 °F 84% 29.89 in 6.2 mi East 12.7 mph - N/A   Mostly Cloudy
1:00 PM 77 °F - 74 °F 89% 29.82 in - East 13.8 mph - -  
1:00 PM 77.0 °F - 75.2 °F 94% 29.86 in - East 13.8 mph - N/A   Overcast
2:00 PM 77.0 °F - 73.4 °F 89% 29.83 in 6.2 mi East 12.7 mph - N/A   Overcast
3:00 PM 77 °F - 74 °F 88% 29.81 in - ENE 10.4 mph - -   Overcast
3:00 PM 77.0 °F - 73.4 °F 89% 29.83 in 6.2 mi ENE 10.4 mph - N/A   Overcast
4:00 PM 78 °F - 74 °F 83% 29.80 in - East 8.1 mph - -  
4:00 PM 77.0 °F - 73.4 °F 89% 29.83 in 6.2 mi East 8.1 mph - N/A   Unknown
5:00 PM 77.0 °F - 73.4 °F 89% 29.86 in 6.2 mi ENE 10.4 mph - N/A   Mostly Cloudy
5:21 PM 77.0 °F - 73.4 °F 89% 29.86 in 6.2 mi ENE 9.2 mph - N/A   Mostly Cloudy
6:00 PM 77 °F - 74 °F 87% 29.82 in - East 8.1 mph - -   Overcast
6:00 PM 77.0 °F - 73.4 °F 89% 29.86 in - East 8.1 mph - N/A   Mostly Cloudy
6:14 PM 77.0 °F - 75.2 °F 94% 29.86 in - ENE 9.2 mph - N/A   Overcast
7:00 PM 77 °F - 75 °F 90% 29.83 in - ENE 10.4 mph - -  
7:00 PM 77.0 °F - 75.2 °F 94% 29.86 in - ENE 10.4 mph - N/A   Overcast
8:00 PM 77.0 °F - 75.2 °F 94% 29.89 in - East 12.7 mph - N/A   Overcast
9:00 PM 77 °F - 76 °F 96% 29.86 in - East 12.7 mph - -   Overcast
9:00 PM 77.0 °F - 77.0 °F 100% 29.89 in - East 12.7 mph - N/A   Overcast
10:00 PM 77 °F - 76 °F 94% 29.87 in - East 12.7 mph - -  
10:00 PM 77.0 °F - 75.2 °F 94% 29.89 in - East 12.7 mph - N/A   Overcast
11:00 PM 77.0 °F - 77.0 °F 100% 29.89 in - ENE 12.7 mph - N/A   Overcast